Regional Weather Roundup
Issued by NWS

Home | Current Version | Previous Version | Graphics & Text | Print | Product List | Glossary On
Versions: 1 2 3 4 5 6 7 8 9 10 11 12 13 14 15 16 17 18 19 20 21 22 23 24 25 26 27 28 29 30 31 32 33 34 35 36 37 38 39 40 41 42 43 44 45 46 47 48 49 50
000
ASUS45 KABQ 200610
RWRNM
WEATHER ROUNDUP FOR NEW MEXICO
NATIONAL WEATHER SERVICE ALBUQUERQUE NM
1200 AM MDT SAT SEP 20 2014

NOTE: "FAIR" MEANS FEW OR NO CLOUDS BELOW 12,000 FEET AGL WITH NO
       SIGNIFICANT WEATHER OR OBSTRUCTIONS TO VISION.

      THIS PRODUCT IS RELEASED AS TWO VERSIONS.  ONE VERSION NEAR
      THE TOP OF THE HOUR CONTAINING PRELIMINARY DATA FROM ALBUQUERQUE
      AND OTHER STATIONS.  A FINAL VERSION WITH ADDITIONAL DATA IS
      ISSUED ABOUT 10 MINUTES AFTER THE HOUR.

NMZ501-503-504-510>518-200700-
NORTHWEST PLATEAU/NORTHCENTRAL MOUNTAINS

CITY           SKY/WX    TMP DP  RH WIND       PRES   REMARKS
FARMINGTON     CLEAR     65  42  43 N5        30.05S
6HR MIN TEMP:  65; 6HR MAX TEMP:  86;

LOS ALAMOS     CLEAR     62  55  77 S10       30.22S
SANTA FE       CLEAR     64  55  72 SE8       30.17R
6HR MIN TEMP:  64; 6HR MAX TEMP:  78;

TAOS           CLEAR     55  43  62 CALM      30.21S
ANGEL FIRE     MOCLDY    45  42  89 CALM      30.31S

$$
NMZ402-403-502-505>509-200700-
WESTCENTRAL MOUNTAINS/SOUTHWEST MOUNTAINS

CITY           SKY/WX    TMP DP  RH WIND       PRES   REMARKS
GALLUP         CLEAR     55  37  50 CALM      30.16S
6HR MIN TEMP:  55; 6HR MAX TEMP:  81;

GRANTS         CLEAR     54  45  71 W3        30.18S
SILVER CITY    MOCLDY    66  59  77 N7        30.12S

$$
NMZ407-409-411-412-200700-
SOUTHERN DESERTS

CITY           SKY/WX    TMP DP  RH WIND       PRES   REMARKS
LORDSBURG      FAIR      70  64  83 MISG      30.03S
DEMING         CLEAR     68  64  87 NW3       30.03S
6HR MIN TEMP:  68; 6HR MAX TEMP:  81;

LAS CRUCES     MOCLDY    69  64  84 CALM      30.05S
HOLLOMAN AFB   PTCLDY    68  65  90 CALM      30.02R
ALAMOGORDO     PTCLDY    66  64  94 NE7       30.04S
T OR C         CLEAR     69  64  84 CALM      30.06R
6HR MIN TEMP:  69; 6HR MAX TEMP:  82;


$$
NMZ519>523-200700-
CENTRAL VALLEYS/CENTRAL HIGHLANDS

CITY           SKY/WX    TMP DP  RH WIND       PRES   REMARKS
ALBUQUERQUE    CLEAR     69  56  62 SW5       30.10R
6HR MIN TEMP:  69; 6HR MAX TEMP:  81;

DOUBLE EAGLE   CLEAR     62  56  80 S6        30.14R
MORIARTY ARPT  FAIR      58  55  90 CALM      30.19S
6HR MIN TEMP:  58; 6HR MAX TEMP:  70;

CLINES CORNERS FOG       57  56  96 SE5       30.21S VSB 1/4
6HR MIN TEMP:  57; 6HR MAX TEMP:  67;

BELEN          FAIR      64  60  86 S7        30.09S
6HR MIN TEMP:  64; 6HR MAX TEMP:  79;

SOCORRO        FAIR      66  62  86 SW5       30.08S
6HR MIN TEMP:  66; 6HR MAX TEMP:  80;


$$
NMZ524>526-539-540-200700-
SOUTHCENTRAL MOUNTAINS

CITY           SKY/WX    TMP DP  RH WIND       PRES   REMARKS
RUIDOSO        CLOUDY    59  59 100 CALM      30.22F

$$
NMZ527>531-200700-
NORTHEAST HIGHLANDS/NORTHEAST PLAINS

CITY           SKY/WX    TMP DP  RH WIND       PRES   REMARKS
LAS VEGAS      MOCLDY    58  57  97 S10       30.21S
6HR MIN TEMP:  57; 6HR MAX TEMP:  69; 6HR PCP: TRACE;

RATON          CLEAR     60  56  86 CALM      30.16S
6HR MIN TEMP:  60; 6HR MAX TEMP:  77;

CLAYTON        CLOUDY    64  61  90 S15       30.09R
6HR MIN TEMP:  63; 6HR MAX TEMP:  74;


$$
NMZ532>537-200700-
EASTCENTRAL PLAINS

CITY           SKY/WX    TMP DP  RH WIND       PRES   REMARKS
TUCUMCARI      CLEAR     67  61  81 SW9       30.05S
6HR MIN TEMP:  67; 6HR MAX TEMP:  77;

CANNON AFB     CLOUDY    66 N/A N/A S8        30.09F
6HR MIN TEMP:  65; 6HR MAX TEMP:  72;

CLOVIS AIRPORT   N/A     64  63  94 S7        30.11S

$$
NMZ028-029-538-200700-
SOUTHEAST PLAINS

CITY           SKY/WX    TMP DP  RH WIND       PRES   REMARKS
ROSWELL        LGT RAIN  68  66  93 E5        30.03F
6HR MIN TEMP:  68; 6HR MAX TEMP:  73; 6HR PCP:  0.01;

CARLSBAD       CLOUDY    71  32  23 E7        29.99S HAZE
6HR MIN TEMP:  71; 6HR MAX TEMP:  73;

HOBBS          CLOUDY    68  68 100 SE7       30.04F


$$



USA.gov is the U.S. government's official web portal to all federal, state and local government web resources and services.